DW8453 Bekkjarvik NO current weather conditions

sailwx.info

Wind from 160 at 4 knots gusting 2

Air temperature 18.9° C
Dewpoint 15.9° C

Last reported at 2017-Jul-26 08:09 UTC.
Time now 2017-Jul-26 08:50 UTC

Location: N 60°01' E 005°12'.
View on Google Maps.

See reports from other nearby stations

  
Tides and Currents Weather Stations Pressure Air Temp Water Temp Dewpoint Dewpoint Depression Visibility Wind Speed Wind Dir Waves Ship Positions
date/time (UTC)wind fromknots sea level pressurealtimeterstation pressurevisibilityair tempwater tempwave heightnotes
2017-Jul-26 08:09 160 4 gusting 2 18.9
2017-Jul-26 08:04 178 2 gusting 2 18.9
2017-Jul-26 07:59 119 1 gusting 1 18.9
2017-Jul-26 07:54 140 0 gusting 2 18.3
2017-Jul-26 07:49 135 2 gusting 2 18.3
2017-Jul-26 07:44 142 4 gusting 2 18.3
2017-Jul-26 07:39 172 1 gusting 4 18.3
2017-Jul-26 07:34 129 3 gusting 4 18.3
2017-Jul-26 07:29 179 0 gusting 2 17.8
2017-Jul-26 07:24 180 2 gusting 2 17.8
2017-Jul-26 07:19 158 0 gusting 2 17.8
2017-Jul-26 07:14 160 2 gusting 2 17.8
2017-Jul-26 07:09 157 2 gusting 2 17.8
2017-Jul-26 07:04 158 2 gusting 2 17.2
2017-Jul-26 06:59 158 1 gusting 2 17.2
2017-Jul-26 06:54 158 1 gusting 2 17.2
2017-Jul-26 06:49 176 1 gusting 1 17.2
2017-Jul-26 06:44 180 2 gusting 2 16.7
2017-Jul-26 06:39 180 1 gusting 1 16.7
2017-Jul-26 06:34 112 1 gusting 2 16.7
2017-Jul-26 06:29 16.7
2017-Jul-26 06:24 315 16.7
2017-Jul-26 06:19 317 0 gusting 1 16.1
2017-Jul-26 06:14 16.1
2017-Jul-26 06:09 16.1
2017-Jul-26 06:04 16.1
2017-Jul-26 05:59 16.1
2017-Jul-26 05:54 001 16.1
2017-Jul-26 05:49 090 16.1
2017-Jul-26 05:44 090 15.6
2017-Jul-26 05:39 090 0 gusting 2 15.6
2017-Jul-26 05:34 132 1 gusting 0 15.6
2017-Jul-26 05:29 112 0 gusting 2 15.6
2017-Jul-26 05:24 135 1 gusting 2 15.6
2017-Jul-26 05:19 137 2 gusting 1 15.6
2017-Jul-26 05:14 180 0 gusting 1 15.6
2017-Jul-26 05:09 202 2 gusting 2 15.6
2017-Jul-26 05:04 201 2 gusting 4 15.6
2017-Jul-26 04:59 177 2 gusting 2 15.0
2017-Jul-26 04:54 158 3 gusting 5 15.0
2017-Jul-26 04:49 154 4 gusting 5 15.0
2017-Jul-26 04:44 135 5 gusting 4 15.0
2017-Jul-26 04:39 158 5 gusting 6 15.0
2017-Jul-26 04:34 156 7 gusting 6 15.0
2017-Jul-26 04:29 155 5 gusting 6 15.0
2017-Jul-26 04:24 137 4 gusting 5 15.0
2017-Jul-26 04:19 158 4 gusting 4 15.0
2017-Jul-26 04:14 158 4 gusting 5 15.0
2017-Jul-26 04:09 158 4 gusting 4 15.0
2017-Jul-26 04:04 134 3 gusting 4 15.0
2017-Jul-26 03:59 135 3 gusting 2 15.0
2017-Jul-26 03:54 132 2 gusting 2 14.4
2017-Jul-26 03:49 115 1 gusting 2 14.4
2017-Jul-26 03:44 184 1 gusting 1 14.4
2017-Jul-26 03:39 202 2 gusting 2 14.4
2017-Jul-26 03:34 198 3 gusting 2 14.4
2017-Jul-26 03:29 248 1 gusting 1 14.4
2017-Jul-26 03:24 315 2 gusting 1 14.4
2017-Jul-26 03:19 315 14.4
2017-Jul-26 03:14 315 14.4
2017-Jul-26 03:09 315 14.4
2017-Jul-26 03:04 315 14.4
2017-Jul-26 02:59 315 14.4
2017-Jul-26 02:54 315 0 gusting 1 14.4
2017-Jul-26 02:49 315 1 gusting 0 14.4
2017-Jul-26 02:44 338 1 gusting 2 14.4
2017-Jul-26 02:39 315 3 gusting 2 14.4
2017-Jul-26 02:34 315 2 gusting 2 14.4
2017-Jul-26 02:29 315 2 gusting 2 14.4
2017-Jul-26 02:24 315 1 gusting 1 14.4
2017-Jul-26 02:19 315 2 gusting 1 14.4
2017-Jul-26 02:14 315 2 gusting 2 14.4
2017-Jul-26 02:09 315 3 gusting 2 14.4
2017-Jul-26 02:04 315 4 gusting 4 14.4
2017-Jul-26 01:59 299 4 gusting 2 14.4
2017-Jul-26 01:54 331 3 gusting 2 14.4
2017-Jul-26 01:49 292 4 gusting 4 14.4
2017-Jul-26 01:44 292 3 gusting 2 14.4
2017-Jul-26 01:39 292 2 gusting 2 14.4
2017-Jul-26 01:34 270 2 gusting 4 14.4
2017-Jul-26 01:29 270 4 gusting 4 14.4
2017-Jul-26 01:24 270 3 gusting 2 14.4
2017-Jul-26 01:19 298 2 gusting 2 14.4
2017-Jul-26 01:14 315 2 gusting 2 14.4
2017-Jul-26 01:09 292 1 gusting 2 14.4
2017-Jul-26 01:04 292 4 gusting 2 14.4
2017-Jul-26 00:59 276 4 gusting 4 14.4
2017-Jul-26 00:54 270 6 gusting 5 14.4
2017-Jul-26 00:49 281 4 gusting 4 14.4
2017-Jul-26 00:44 291 5 gusting 5 14.4
2017-Jul-26 00:39 270 3 gusting 2 14.4
2017-Jul-26 00:34 292 2 gusting 2 14.4
2017-Jul-26 00:29 315 2 gusting 2 14.4
2017-Jul-26 00:24 315 2 gusting 2 14.4
2017-Jul-26 00:19 310 1 gusting 2 14.4
2017-Jul-26 00:14 315 3 gusting 2 14.4
2017-Jul-26 00:09 315 4 gusting 2 14.4
2017-Jul-26 00:04 315 2 gusting 2 14.4
2017-Jul-25 23:59 292 2 gusting 2 14.4
2017-Jul-25 23:54 306 2 gusting 2 14.4
2017-Jul-25 23:49 281 3 gusting 2 14.4
2017-Jul-25 23:44 304 4 gusting 4 14.4
2017-Jul-25 23:39 280 5 gusting 4 14.4
2017-Jul-25 23:34 283 5 gusting 4 14.4
2017-Jul-25 23:29 292 4 gusting 2 14.4
2017-Jul-25 23:24 287 5 gusting 5 14.4
2017-Jul-25 23:19 275 6 gusting 5 14.4
2017-Jul-25 23:14 292 4 gusting 4 14.4
2017-Jul-25 23:09 292 4 gusting 2 14.4
2017-Jul-25 23:04 270 4 gusting 4 14.4
2017-Jul-25 22:59 270 3 gusting 4 14.4
2017-Jul-25 22:54 286 3 gusting 2 14.4
2017-Jul-25 22:49 292 4 gusting 2 14.4
2017-Jul-25 22:44 315 3 gusting 2 14.4
2017-Jul-25 22:39 315 4 gusting 2 14.4
2017-Jul-25 22:34 315 3 gusting 2 14.4
2017-Jul-25 22:29 277 3 gusting 4 14.4
2017-Jul-25 22:24 315 4 gusting 4 14.4
2017-Jul-25 22:19 315 4 gusting 4 14.4
2017-Jul-25 22:14 315 5 gusting 5 14.4
2017-Jul-25 22:09 315 4 gusting 4 15.0
2017-Jul-25 22:04 313 5 gusting 5 15.0
2017-Jul-25 21:59 278 6 gusting 6 15.0
2017-Jul-25 21:54 315 6 gusting 6 15.0
2017-Jul-25 21:49 315 8 gusting 7 15.0
2017-Jul-25 21:44 303 7 gusting 7 15.0
2017-Jul-25 21:39 315 7 gusting 7 15.0
2017-Jul-25 21:34 315 7 gusting 7 15.0
2017-Jul-25 21:29 315 7 gusting 6 15.0
2017-Jul-25 21:24 315 7 gusting 6 15.0
2017-Jul-25 21:19 303 7 gusting 6 15.0
2017-Jul-25 21:14 315 6 gusting 6 15.6
2017-Jul-25 21:09 315 6 gusting 6 15.6
2017-Jul-25 21:04 293 5 gusting 6 15.6
2017-Jul-25 20:59 315 8 gusting 7 15.6
2017-Jul-25 20:54 315 8 gusting 10 15.6
2017-Jul-25 20:49 304 10 gusting 10 15.6
2017-Jul-25 20:44 326 10 gusting 8 15.6
2017-Jul-25 20:39 314 10 gusting 8 16.1
2017-Jul-25 20:34 329 8 gusting 8 16.1
2017-Jul-25 20:29 300 10 gusting 8 16.1
2017-Jul-25 20:24 307 10 gusting 8 16.7
2017-Jul-25 20:19 302 6 gusting 10 16.7
2017-Jul-25 20:14 315 8 gusting 10 16.7
2017-Jul-25 20:09 296 8 gusting 7 17.2
2017-Jul-25 20:04 312 7 gusting 6 17.8
2017-Jul-25 19:59 301 8 gusting 8 17.8
2017-Jul-25 19:54 315 8 gusting 7 18.3
2017-Jul-25 19:49 303 7 gusting 8 18.9
2017-Jul-25 19:44 315 10 gusting 8 18.9
2017-Jul-25 19:39 305 8 gusting 6 19.4
2017-Jul-25 19:34 306 6 gusting 6 20.0
2017-Jul-25 19:29 270 6 gusting 7 21.1
2017-Jul-25 19:24 304 7 gusting 7 22.2
2017-Jul-25 19:19 306 7 gusting 6 22.2
2017-Jul-25 19:14 276 7 gusting 7 22.2
2017-Jul-25 19:09 315 8 gusting 7 22.2
2017-Jul-25 19:04 293 6 gusting 7 22.2
2017-Jul-25 18:59 292 7 gusting 7 22.8
2017-Jul-25 18:54 302 10 gusting 10 22.8
2017-Jul-25 18:49 315 8 gusting 8 22.8
2017-Jul-25 18:44 292 8 gusting 10 23.3
2017-Jul-25 18:39 292 7 gusting 7 24.4
2017-Jul-25 18:34 292 7 gusting 7 25.6
2017-Jul-25 18:29 286 6 gusting 6 25.6
2017-Jul-25 18:24 275 5 gusting 6 26.1
2017-Jul-25 18:19 270 5 gusting 6 25.6
2017-Jul-25 18:14 296 6 gusting 6 25.0
2017-Jul-25 18:09 313 6 gusting 6 24.4
2017-Jul-25 18:04 337 7 gusting 6 23.9
2017-Jul-25 17:59 284 9 gusting 7 23.9
2017-Jul-25 17:54 282 6 gusting 8 23.3
2017-Jul-25 17:49 315 10 gusting 8 23.3
2017-Jul-25 17:44 315 6 gusting 6 22.8
2017-Jul-25 17:39 304 7 gusting 10 21.7
2017-Jul-25 17:34 315 12 gusting 10 21.1
2017-Jul-25 17:29 292 9 gusting 11 20.6
2017-Jul-25 17:24 304 8 gusting 10 19.4
2017-Jul-25 17:19 315 11 gusting 11 18.3
2017-Jul-25 17:14 294 12 gusting 11 18.3
2017-Jul-25 17:09 335 11 gusting 10 18.3
2017-Jul-25 17:04 337 13 gusting 10 18.3
2017-Jul-25 16:59 325 10 gusting 8 18.3
2017-Jul-25 16:54 315 6 gusting 6 18.3
2017-Jul-25 16:49 315 11 gusting 11 18.3
2017-Jul-25 16:44 303 13 gusting 12 18.3
2017-Jul-25 16:39 315 14 gusting 13 18.3
2017-Jul-25 16:34 283 10 gusting 8 18.3
2017-Jul-25 16:29 001 7 gusting 8 18.3
2017-Jul-25 16:24 322 8 gusting 12 18.3
2017-Jul-25 16:19 315 12 gusting 12 18.3
2017-Jul-25 16:14 292 8 gusting 10 18.3
2017-Jul-25 16:09 274 13 gusting 13 18.3
2017-Jul-25 16:04 294 11 gusting 8 18.3
2017-Jul-25 15:59 325 8 gusting 8 18.3
2017-Jul-25 15:54 295 16 gusting 14 17.8
2017-Jul-25 15:49 315 10 gusting 10 17.8
2017-Jul-25 15:44 315 9 gusting 12 17.8
2017-Jul-25 15:39 328 14 gusting 12 17.8
2017-Jul-25 15:34 315 12 gusting 11 17.8
2017-Jul-25 15:29 285 13 gusting 14 17.8
2017-Jul-25 15:24 297 11 gusting 14 18.3
2017-Jul-25 15:19 286 13 gusting 13 18.3
2017-Jul-25 15:14 275 8 gusting 11 18.3
2017-Jul-25 15:09 315 7 gusting 13 18.3
2017-Jul-25 15:04 314 8 gusting 10 18.3
2017-Jul-25 14:59 006 13 gusting 12 18.3
2017-Jul-25 14:54 325 13 gusting 11 18.3
2017-Jul-25 14:49 280 6 gusting 12 17.8
2017-Jul-25 14:44 325 14 gusting 13 17.8
2017-Jul-25 14:39 292 12 gusting 12 17.8
2017-Jul-25 14:34 296 11 gusting 10 17.8
2017-Jul-25 14:29 315 7 gusting 10 17.8
2017-Jul-25 14:24 297 11 gusting 13 17.8
2017-Jul-25 14:19 315 12 gusting 11 17.8
2017-Jul-25 14:14 315 13 gusting 12 18.3
2017-Jul-25 14:09 336 8 gusting 8 18.3
2017-Jul-25 14:04 315 7 gusting 10 18.3
2017-Jul-25 13:59 316 13 gusting 12 17.8
2017-Jul-25 13:53 338 13 gusting 13 17.8
2017-Jul-25 13:49 315 12 gusting 13 17.8
2017-Jul-25 13:44 314 9 gusting 8 17.8
2017-Jul-25 13:39 315 13 gusting 12 17.8
2017-Jul-25 13:34 311 10 gusting 11 17.8
2017-Jul-25 13:29 356 7 gusting 8 17.8
2017-Jul-25 13:24 327 9 gusting 7 17.8
2017-Jul-25 13:18 302 8 gusting 10 17.8
2017-Jul-25 13:09 255 11 gusting 12 17.8
2017-Jul-25 13:04 268 11 gusting 10 17.8
2017-Jul-25 12:59 327 12 gusting 11 17.8
2017-Jul-25 12:53 315 13 gusting 12 17.8
2017-Jul-25 12:49 302 10 gusting 12 17.8
2017-Jul-25 12:44 307 13 gusting 12 17.8
2017-Jul-25 12:38 292 12 gusting 12 17.8
2017-Jul-25 12:34 292 8 gusting 6 17.8
2017-Jul-25 12:29 338 10 gusting 10 17.8
2017-Jul-25 12:23 302 8 gusting 10 17.8
2017-Jul-25 12:18 331 10 gusting 8 17.8
2017-Jul-25 12:14 333 10 gusting 8 17.8
2017-Jul-25 12:09 315 11 gusting 12 17.8
2017-Jul-25 12:04 313 8 gusting 12 17.8
2017-Jul-25 11:59 306 7 gusting 11 17.8
2017-Jul-25 11:53 342 7 gusting 11 18.3
2017-Jul-25 11:49 324 9 gusting 7 18.3
2017-Jul-25 11:44 255 8 gusting 7 18.3
2017-Jul-25 11:39 332 6 gusting 10 17.8
2017-Jul-25 11:34 334 8 gusting 11 17.8
2017-Jul-25 11:28 18.3
2017-Jul-25 11:24 320 5 gusting 6 18.3
2017-Jul-25 11:19 315 7 gusting 10 17.8
2017-Jul-25 11:13 358 10 gusting 10 17.8
2017-Jul-25 11:08 319 10 gusting 10 17.8
2017-Jul-25 11:03 335 11 gusting 10 17.8
2017-Jul-25 10:58 338 11 gusting 10 17.8
2017-Jul-25 10:54 341 12 gusting 13 17.8
2017-Jul-25 10:49 321 11 gusting 12 17.8
2017-Jul-25 10:43 338 10 gusting 8 17.8
2017-Jul-25 10:39 356 6 gusting 7 17.8
2017-Jul-25 10:34 338 5 gusting 5 17.8
2017-Jul-25 10:29 315 5 gusting 6 17.8
2017-Jul-25 10:24 336 7 gusting 7 17.8
2017-Jul-25 10:19 319 9 gusting 8 17.8
2017-Jul-25 10:13 335 7 gusting 8 17.8
2017-Jul-25 10:09 314 6 gusting 6 17.8
2017-Jul-25 10:04 318 8 gusting 6 17.8
2017-Jul-25 09:58 296 7 gusting 6 17.8
2017-Jul-25 09:53 321 5 gusting 7 17.2
2017-Jul-25 09:49 338 5 gusting 6 17.2
2017-Jul-25 09:44 309 7 gusting 6 17.2
2017-Jul-25 09:39 289 5 gusting 6 17.2
2017-Jul-25 09:33 317 6 gusting 6 17.2
2017-Jul-25 09:28 341 6 gusting 5 17.2
2017-Jul-25 09:23 334 6 gusting 6 16.7
2017-Jul-25 09:18 315 7 gusting 6 16.7
2017-Jul-25 09:14 272 5 gusting 5 16.7
2017-Jul-25 09:09 317 2 gusting 5 16.7
2017-Jul-25 09:03 313 6 gusting 5 16.7
2017-Jul-25 08:58 328 6 gusting 7 16.7
2017-Jul-25 08:53 333 6 gusting 5 16.7
2017-Jul-25 08:48 311 5 gusting 6 17.2
2017-Jul-25 08:43 334 2 gusting 2 16.7
2017-Jul-25 08:38 297 4 gusting 5 16.7
2017-Jul-25 08:33 338 6 gusting 6 16.7
2017-Jul-25 08:28 335 4 gusting 4 16.7
2017-Jul-25 08:24 317 6 gusting 6 16.7
2017-Jul-25 08:18 315 4 gusting 4 16.7
2017-Jul-25 08:14 316 2 gusting 2 16.7
2017-Jul-25 08:09 022 3 gusting 5 16.7
2017-Jul-25 08:03 16.7
2017-Jul-25 07:58 315 5 gusting 5 16.7
2017-Jul-25 07:54 352 4 gusting 5 16.7
2017-Jul-25 07:49 16.7
2017-Jul-25 07:43 16.7
2017-Jul-25 07:38 356 5 gusting 4 16.7
2017-Jul-25 07:33 16.7
2017-Jul-25 07:29 16.7
2017-Jul-25 07:23 301 4 gusting 5 16.7
2017-Jul-25 07:18 317 2 gusting 4 16.7
2017-Jul-25 07:13 16.7
2017-Jul-25 07:09 338 3 gusting 4 16.1
2017-Jul-25 07:04 338 4 gusting 4 16.1
2017-Jul-25 06:59 315 3 gusting 2 16.1
2017-Jul-25 06:53 345 4 gusting 5 16.1
2017-Jul-25 06:49 16.1
2017-Jul-25 06:44 338 2 gusting 2 16.1
2017-Jul-25 06:39 16.1
2017-Jul-25 06:33 338 2 gusting 2 16.1
2017-Jul-25 06:29 338 0 gusting 1 15.6
2017-Jul-25 06:23 338 1 gusting 0 15.6
2017-Jul-25 06:18 338 0 gusting 0 15.6
2017-Jul-25 06:13 338 0 gusting 1 15.6
2017-Jul-25 06:08 338 0 gusting 0 15.6
2017-Jul-25 06:04 338 1 gusting 2 15.0
2017-Jul-25 05:59 015 3 gusting 2 15.0
2017-Jul-25 05:53 338 2 gusting 2 15.0
2017-Jul-25 05:49 326 2 gusting 2 15.0
2017-Jul-25 05:43 338 2 gusting 2 15.0
2017-Jul-25 05:38 15.0
2017-Jul-25 05:33 15.0
2017-Jul-25 05:28 15.0
2017-Jul-25 05:23 15.0
2017-Jul-25 05:19 356 1 gusting 1 15.0
2017-Jul-25 05:14 15.0
2017-Jul-25 05:08 15.0
2017-Jul-25 05:04 15.0
2017-Jul-25 04:58 15.0
2017-Jul-25 04:53 14.4
2017-Jul-25 04:49 14.4
2017-Jul-25 04:44 14.4
2017-Jul-25 04:39 338 1 gusting 1 14.4
2017-Jul-25 04:34 338 0 gusting 1 14.4
2017-Jul-25 04:28 338 1 gusting 1 14.4
2017-Jul-25 04:23 343 1 gusting 1 14.4
2017-Jul-25 04:18 14.4
2017-Jul-25 04:13 112 1 gusting 0 14.4
2017-Jul-25 04:09 112 0 gusting 0 14.4
2017-Jul-25 04:04 112 14.4
2017-Jul-25 03:58 112 14.4
2017-Jul-25 03:53 112 14.4
2017-Jul-25 03:48 112 14.4
2017-Jul-25 03:44 112 14.4
2017-Jul-25 03:38 112 14.4
2017-Jul-25 03:33 112 14.4
2017-Jul-25 03:29 112 0 gusting 0 14.4
2017-Jul-25 03:23 112 14.4
2017-Jul-25 03:18 112 14.4
2017-Jul-25 03:13 112 14.4
2017-Jul-25 03:09 112 14.4
2017-Jul-25 03:03 112 14.4
2017-Jul-25 02:58 112 14.4
2017-Jul-25 02:54 112 14.4
2017-Jul-25 02:48 112 0 gusting 0 14.4
2017-Jul-25 02:43 112 1 gusting 1 14.4
2017-Jul-25 02:38 112 1 gusting 1 14.4
2017-Jul-25 02:34 112 1 gusting 1 14.4
2017-Jul-25 02:28 112 1 gusting 1 14.4
2017-Jul-25 02:23 112 0 gusting 0 14.4
2017-Jul-25 02:18 112 14.4
2017-Jul-25 02:13 112 14.4
2017-Jul-25 02:08 112 14.4
2017-Jul-25 02:04 112 14.4
2017-Jul-25 01:58 112 14.4
2017-Jul-25 01:54 112 0 gusting 0 14.4
2017-Jul-25 01:48 112 0 gusting 0 14.4
2017-Jul-25 01:43 112 1 gusting 0 14.4
2017-Jul-25 01:39 112 1 gusting 1 14.4
2017-Jul-25 01:33 112 1 gusting 1 14.4
2017-Jul-25 01:28 126 2 gusting 1 14.4
2017-Jul-25 01:24 090 1 gusting 2 14.4
2017-Jul-25 01:18 112 3 gusting 2 14.4
2017-Jul-25 01:14 117 2 gusting 2 14.4
2017-Jul-25 01:08 202 14.4
2017-Jul-25 01:03 202 14.4
2017-Jul-25 00:58 202 14.4
2017-Jul-25 00:54 202 0 gusting 0 14.4
2017-Jul-25 00:48 225 0 gusting 1 15.0
2017-Jul-25 00:43 235 0 gusting 1 15.0
2017-Jul-25 00:38 248 15.0
2017-Jul-25 00:34 248 15.0
2017-Jul-25 00:28 248 15.0
2017-Jul-25 00:23 248 15.0
2017-Jul-25 00:18 248 15.0
2017-Jul-25 00:13 248 15.0
2017-Jul-25 00:08 248 0 gusting 1 15.0
2017-Jul-25 00:03 248 1 gusting 0 15.0
2017-Jul-24 23:58 270 15.0
2017-Jul-24 23:53 270 0 gusting 0 15.0
2017-Jul-24 23:48 270 1 gusting 1 15.0
2017-Jul-24 23:43 270 1 gusting 1 15.0
2017-Jul-24 23:38 270 15.0
2017-Jul-24 23:34 270 0 gusting 0 15.0
2017-Jul-24 23:28 270 1 gusting 0 15.0
2017-Jul-24 23:23 270 15.0
2017-Jul-24 23:18 270 15.0
2017-Jul-24 23:13 270 15.0
2017-Jul-24 23:09 270 15.0
2017-Jul-24 23:03 270 15.0
2017-Jul-24 22:59 270 15.0
2017-Jul-24 22:53 270 15.0
2017-Jul-24 22:48 270 0 gusting 0 15.0
2017-Jul-24 22:44 270 2 gusting 2 15.0
2017-Jul-24 22:39 225 1 gusting 1 15.0
2017-Jul-24 22:33 225 1 gusting 1 15.0
2017-Jul-24 22:28 225 1 gusting 1 15.0
2017-Jul-24 22:23 202 1 gusting 1 15.0
2017-Jul-24 22:18 202 1 gusting 2 15.0
2017-Jul-24 22:13 202 3 gusting 2 15.0
2017-Jul-24 22:09 199 2 gusting 5 15.0
2017-Jul-24 22:03 180 1 gusting 5 15.0
2017-Jul-24 21:58 150 1 gusting 2 15.0
2017-Jul-24 21:53 180 2 gusting 5 15.0
2017-Jul-24 21:49 202 2 gusting 4 15.0
2017-Jul-24 21:43 135 4 gusting 5 15.0
2017-Jul-24 21:38 153 4 gusting 5 15.0
2017-Jul-24 21:33 135 5 gusting 5 15.0
2017-Jul-24 21:28 135 4 gusting 4 15.0
2017-Jul-24 21:23 135 3 gusting 4 15.0
2017-Jul-24 21:18 132 2 gusting 2 15.0
2017-Jul-24 21:13 112 1 gusting 1 15.0
2017-Jul-24 21:08 068 1 gusting 0 15.0
2017-Jul-24 21:03 068 0 gusting 1 15.0
2017-Jul-24 20:59 040 0 gusting 1 15.0
2017-Jul-24 20:53 15.0
2017-Jul-24 20:49 15.0
2017-Jul-24 20:43 326 15.0
2017-Jul-24 20:38 315 15.0
2017-Jul-24 20:33 315 0 gusting 0 15.0
2017-Jul-24 20:23 312 1 gusting 1 15.0
2017-Jul-24 20:18 315 2 gusting 1 15.0
2017-Jul-24 20:13 315 2 gusting 2 15.0
2017-Jul-24 20:08 335 0 gusting 2 15.0
2017-Jul-24 20:03 294 2 gusting 2 15.0
2017-Jul-24 19:58 333 3 gusting 5 15.0
2017-Jul-24 19:54 283 4 gusting 4 15.0
2017-Jul-24 19:49 283 4 gusting 5 15.0
2017-Jul-24 19:44 292 4 gusting 5 15.0
2017-Jul-24 19:38 292 8 gusting 6 15.0
2017-Jul-24 19:33 288 8 gusting 7 15.6
2017-Jul-24 19:29 270 6 gusting 6 15.6
2017-Jul-24 19:24 295 7 gusting 6 15.6
2017-Jul-24 19:18 266 5 gusting 6 15.6
2017-Jul-24 19:14 266 7 gusting 7 15.6
2017-Jul-24 19:08 268 5 gusting 6 15.6
2017-Jul-24 19:03 205 5 gusting 6 15.6
2017-Jul-24 18:58 239 5 gusting 5 15.6
2017-Jul-24 18:53 225 4 gusting 5 15.6
2017-Jul-24 18:48 230 5 gusting 5 15.6
2017-Jul-24 18:43 286 6 gusting 6 15.6
2017-Jul-24 18:38 229 6 gusting 5 15.6
2017-Jul-24 18:33 266 6 gusting 6 15.6
2017-Jul-24 18:28 270 7 gusting 6 15.6
2017-Jul-24 18:23 248 7 gusting 7 15.6
2017-Jul-24 18:18 263 7 gusting 7 15.6
2017-Jul-24 18:13 225 8 gusting 7 16.1
2017-Jul-24 18:08 268 3 gusting 6 16.1
2017-Jul-24 18:03 204 7 gusting 7 16.1
2017-Jul-24 17:58 202 7 gusting 6 16.1
2017-Jul-24 17:53 230 6 gusting 7 16.1
2017-Jul-24 17:48 229 8 gusting 7 16.1
2017-Jul-24 17:43 286 8 gusting 8 16.1
2017-Jul-24 17:38 270 13 gusting 10 16.1
2017-Jul-24 17:33 267 7 gusting 7 16.1
2017-Jul-24 17:28 270 7 gusting 7 16.1
2017-Jul-24 17:23 202 6 gusting 6 16.1
2017-Jul-24 17:18 266 10 gusting 8 16.1
2017-Jul-24 17:13 206 7 gusting 6 16.7
2017-Jul-24 17:08 207 4 gusting 5 16.7
2017-Jul-24 17:03 250 6 gusting 7 16.7
2017-Jul-24 16:58 252 7 gusting 7 16.7
2017-Jul-24 16:53 266 4 gusting 6 16.7
2017-Jul-24 16:48 225 4 gusting 5 16.7
2017-Jul-24 16:43 225 7 gusting 7 16.7
2017-Jul-24 16:38 241 4 gusting 6 16.7
2017-Jul-24 16:33 225 4 gusting 5 16.7
2017-Jul-24 16:28 244 6 gusting 6 16.7
2017-Jul-24 16:23 248 5 gusting 6 16.7
2017-Jul-24 16:18 248 8 gusting 8 16.7
2017-Jul-24 16:13 265 7 gusting 6 16.7
2017-Jul-24 16:08 242 7 gusting 8 16.7
2017-Jul-24 16:04 248 6 gusting 6 16.7
2017-Jul-24 15:58 261 3 gusting 4 16.7
2017-Jul-24 15:53 275 5 gusting 5 16.7
2017-Jul-24 15:48 308 4 gusting 5 16.7
2017-Jul-24 15:43 296 1 gusting 2 16.7
2017-Jul-24 15:38 279 4 gusting 2 16.7
2017-Jul-24 15:33 315 2 gusting 2 16.7
2017-Jul-24 15:28 311 5 gusting 5 16.7
2017-Jul-24 15:23 272 4 gusting 4 16.7
2017-Jul-24 15:18 315 1 gusting 2 16.1
2017-Jul-24 15:13 311 4 gusting 4 16.1
2017-Jul-24 15:08 313 3 gusting 6 16.1
2017-Jul-24 15:03 317 5 gusting 6 16.7
2017-Jul-24 14:58 292 4 gusting 6 16.7
2017-Jul-24 14:53 295 4 gusting 6 16.7
2017-Jul-24 14:48 310 6 gusting 6 17.2
2017-Jul-24 14:43 312 6 gusting 6 17.2
2017-Jul-24 14:38 352 3 gusting 4 17.8
2017-Jul-24 14:23 315 7 gusting 6 17.8
2017-Jul-24 14:18 269 5 gusting 5 17.8
2017-Jul-24 14:13 037 6 gusting 6 17.8
2017-Jul-24 14:08 274 5 gusting 6 17.8
2017-Jul-24 14:03 319 5 gusting 7 17.8
2017-Jul-24 13:58 312 5 gusting 6 17.2
2017-Jul-24 13:53 310 8 gusting 7 17.2
2017-Jul-24 13:48 301 7 gusting 6 17.2
2017-Jul-24 13:43 330 3 gusting 6 17.2
2017-Jul-24 13:38 285 9 gusting 7 17.2
2017-Jul-24 13:33 306 7 gusting 7 17.2
2017-Jul-24 13:28 292 8 gusting 8 17.2
2017-Jul-24 13:23 315 6 gusting 10 17.2
2017-Jul-24 13:18 292 8 gusting 8 17.2
2017-Jul-24 13:13 289 8 gusting 6 17.2
2017-Jul-24 13:08 272 6 gusting 7 17.2
2017-Jul-24 13:03 291 8 gusting 8 17.2
2017-Jul-24 12:58 326 6 gusting 8 17.2
2017-Jul-24 12:53 315 6 gusting 6 17.2
2017-Jul-24 12:48 338 4 gusting 6 17.2
2017-Jul-24 12:43 293 6 gusting 6 17.2
2017-Jul-24 12:38 314 7 gusting 8 17.2
2017-Jul-24 12:33 352 5 gusting 8 17.2
2017-Jul-24 12:28 338 6 gusting 6 17.2
2017-Jul-24 12:23 287 5 gusting 6 17.2
2017-Jul-24 12:18 315 6 gusting 6 17.2
2017-Jul-24 12:13 270 6 gusting 5 17.2
2017-Jul-24 12:08 311 6 gusting 6 17.2
2017-Jul-24 12:03 277 5 gusting 6 17.2
2017-Jul-24 11:58 310 5 gusting 5 17.2
2017-Jul-24 11:53 298 7 gusting 7 17.2
2017-Jul-24 11:48 315 5 gusting 7 17.2
2017-Jul-24 11:43 335 4 gusting 5 17.2
2017-Jul-24 11:38 324 6 gusting 6 17.2
2017-Jul-24 11:33 313 7 gusting 6 17.2
2017-Jul-24 11:28 278 4 gusting 5 16.7
2017-Jul-24 11:23 296 4 gusting 5 16.7
2017-Jul-24 11:18 301 8 gusting 7 16.7
2017-Jul-24 11:13 283 7 gusting 6 16.7
2017-Jul-24 11:08 315 4 gusting 7 16.1
2017-Jul-24 11:03 292 6 gusting 6 16.1
2017-Jul-24 10:58 309 6 gusting 7 16.1
2017-Jul-24 10:53 301 8 gusting 7 16.1
2017-Jul-24 10:48 305 6 gusting 6 16.1
2017-Jul-24 10:43 293 6 gusting 6 16.1
2017-Jul-24 10:38 315 5 gusting 6 16.1
2017-Jul-24 10:33 301 4 gusting 6 16.1
2017-Jul-24 10:28 335 8 gusting 6 16.1
2017-Jul-24 10:23 315 6 gusting 6 16.1
2017-Jul-24 10:18 315 7 gusting 6 16.7
2017-Jul-24 10:13 315 5 gusting 5 16.7
2017-Jul-24 10:08 252 7 gusting 6 16.7
2017-Jul-24 10:03 276 5 gusting 6 17.2
2017-Jul-24 09:58 299 4 gusting 5 17.2
2017-Jul-24 09:53 357 4 gusting 2 16.7
2017-Jul-24 09:48 16.7
2017-Jul-24 09:43 339 4 gusting 6 16.7
2017-Jul-24 09:38 325 1 gusting 4 16.7
2017-Jul-24 09:33 272 3 gusting 4 16.1
2017-Jul-24 09:28 338 3 gusting 6 16.1
2017-Jul-24 09:23 016 5 gusting 6 16.1
2017-Jul-24 09:18 321 6 gusting 5 16.1
2017-Jul-24 09:13 298 1 gusting 2 16.1
2017-Jul-24 09:08 358 4 gusting 4 16.1
2017-Jul-24 09:03 16.1
2017-Jul-24 08:58 331 4 gusting 4 16.1
2017-Jul-24 08:53 15.6
2017-Jul-24 08:48 302 3 gusting 4 15.6
2017-Jul-24 08:43 338 4 gusting 5 15.6
2017-Jul-24 08:38 338 1 gusting 5 15.6
2017-Jul-24 08:33 007 5 gusting 5 15.6
2017-Jul-24 08:28 330 5 gusting 7 15.6
2017-Jul-24 08:23 315 6 gusting 6 15.6
2017-Jul-24 08:18 327 5 gusting 5 15.6
2017-Jul-24 08:13 008 3 gusting 2 15.6
2017-Jul-24 08:08 320 5 gusting 6 15.6
2017-Jul-24 08:03 293 5 gusting 6 15.6